Location: Gollag?dem
(17.0207°N, 80.7261°E)
Time: 12:31:06
(UTC+00:00)

Cosmos 1538 Rocket - Pass Details

Date: 03 August 2024
Orbit: 749 x 790 km, 74.0° (Epoch: 11 September)

Event Time Altitude Azimuth Distance (km) Brightness Sun altitude
Rises 23:47:23 0° 204° (SSW) 3,187 6.8 -7.7°
Reaches altitude 10° 23:49:47 10° 209° (SSW) 2,268 6.0 -7.2°
Maximum altitude 23:54:46 51° 285° (WNW) 949 4.2 -6.1°
Drops below altitude 10° 23:59:49 10° 0° (N) 2,294 6.8 -4.9°
Sets 00:02:16 0° 6° (N) 3,227 7.6 -4.4°
